AirNav   Phillips 66 Aviation Fuel
 
 330 users online  

VG07 Rular Airport
Remington, Virginia, USA

GOING TO REMINGTON?


FAA INFORMATION EFFECTIVE 11 OCTOBER 2018

Location

FAA Identifier: VG07
Lat/Long: 38-32-20.0000N / 077-49-42.0000W
38-32.333333N / 077-49.700000W
38.5388889 / -77.8283333
(estimated)
Elevation: 305 ft. / 93 m (estimated)
Variation: 09W (1995)
From city: 1 mile W of REMINGTON, VA
Time zone: UTC -4 (UTC -5 during Standard Time)
Zip code: 22508

Airport Operations

Airport use: Private use. Permission required prior to landing
Activation date: 09/1997
Control tower: no
ARTCC: WASHINGTON CENTER
FSS: LEESBURG FLIGHT SERVICE STATION
Attendance: UNATNDD
Wind indicator: yes
Segmented circle: no

Airport Communications

WX AWOS-3 at CJR (1.7 nm SW): 119.325 (540-727-0523)
WX AWOS-3 at HWY (6 nm NE): 120.350 (540-788-4078)
WX AWOS-3PT at HEF (18 nm NE): PHONE 703-361-6160
WX AWOS-3 at RMN (19 nm SE): 126.325 (540-657-8283)

Nearby radio navigation aids

VOR radial/distance  VOR name  Freq  Var
CSNr170/6.4CASANOVA VORTAC116.3006W
BRVr308/25.4BROOKE VORTAC114.5009W
LDNr143/25.9LINDEN VORTAC114.3006W
AMLr223/29.2ARMEL VOR/DME113.5008W
GVEr032/35.0GORDONSVILLE VORTAC115.6006W

 
NDB name  Hdg/Dist  Freq  Var  ID
NAILR045/6.235110WMSQ -- ... --.-
SHANNON323/24.123710WEZF . --.. ..-.
CAVERNS117/31.724509WLUA .-.. ..- .-
DAVEE267/34.522309WDAA -.. .- .-
OXONN261/39.933211WDCA -.. -.-. .-

Airport Services

Runway Information

Runway 14/32

Dimensions: 1500 x 75 ft. / 457 x 23 m
Surface: turf
RUNWAY 14  RUNWAY 32
Traffic pattern: leftright

Airport Ownership and Management from official FAA records

Ownership: Privately-owned
Owner: LARRY L. SETTI
12028 FREEMAN'S FORD ROAD
REMINGTON, VA 22734
Phone 540-439-2044
Manager: LARRY L. SETTI
12028 FREEMAN'S FORD ROAD
REMINGTON, VA 22734
Phone 540-439-2044
OTHER EMAIL: FITEAFOU@GMAIL.COM

Airport Operational Statistics

Aircraft based on the field: 1
Single engine airplanes: 1
    

Additional Remarks

FOR CD CTC POTOMAC APCH AT 866-709-4993.

Instrument Procedures

There are no published instrument procedures at VG07.

Some nearby airports with instrument procedures:

KCJR - Culpeper Regional Airport (2 nm SW)
KHWY - Warrenton-Fauquier Airport (6 nm NE)
KHEF - Manassas Regional Airport/Harry P. Davis Field (18 nm NE)
KRMN - Stafford Regional Airport (19 nm SE)
KOMH - Orange County Airport (20 nm SW)
 
Loc | Ops | Rwys | IFR | FBO | Links
Com | Nav | Svcs | Stats | Notes


 
Area around VG07 (Rular Airport)
 
Road maps at: MapQuest Bing Google
 
Aerial photo
No photo
 
Sectional chart

 
Airport distance calculator
Flying to Rular Airport? Find the distance to fly.

From to VG07

Sunrise and sunset
Times for 23-Oct-2018
 Local
(UTC-4)
 Zulu
(UTC)
Morning civil twilight07:0211:02
Sunrise07:2911:29
Sunset18:2222:22
Evening civil twilight18:4922:49

Current date and time
Zulu (UTC)  23-Oct-2018 09:03:58
Local (UTC-4)  23-Oct-2018 05:03:58
 
METAR
KHWY 
6nm NE 
230855Z AUTO 19003KT 10SM CLR 05/03 A3009 RMK AO2 T00510033
KCJR 
14nm W 
230855Z AUTO 00000KT 5SM BR CLR 02/02 A3011 RMK AO2 T00220015
KHEF 
18nm NE 
230856Z AUTO 00000KT 10SM CLR 02/02 A3011 RMK AO2 SLP207 6//// T00220022 56012 PNO $
KRMN 
19nm SE 
230855Z AUTO 00000KT 10SM CLR 04/04 A3014 RMK AO2 T00360036
TAF
KNYG 
26nm E 
2303/2403 21009KT 9999 SCT220 QNH3005INS BECMG 2315/2317 27009G18KT QNH2998INS T06/2309Z T19/2319Z
KIAD 
30nm NE 
230539Z 2306/2412 16003KT P6SM SCT090 BKN150 FM230800 20004KT P6SM FEW080 FEW250 FM231600 25008KT P6SM FEW250 FM232000 29012G20KT P6SM FEW070 SCT250 FM240300 32008KT P6SM FEW060 FEW250
NOTAMs
Click for the latest NOTAMs
NOTAMs are issued by the DoD/FAA and will open in a separate window not controlled by AirNav.

 

 
 

Would you like to see your business listed on this page?

 If your business provides an interesting product or service to pilots, flight crews, aircraft, or users of the Rular Airport, you should consider listing it here.  To start the listing process, click on the button below
 
Add a business
 

Other Pages about Rular Airport

Update a link
 
Copyright © AirNav, LLC. All rights reserved. Privacy Policy  Contact